UTA1225 UWGG-UUYY

Flight info

Callsign UTA1225
Flight time 1h 9m
Altitude 350
Route GILAM T382 UMPER N604 KODUG T818 DIKUD
Aircraft B738/M-SDE2FGIRWZ/S

Departure

Time 2026-04-29 16:11
Airport Nizhny Novgorod / Strigino International Airport (UWGG)

Arrival

Time 2026-04-29 17:21
Airport Syktyvkar Airport (UUYY)
Time Latitude Longitude Altitude Speed Heading
2026-04-29 15:52 56.22123 43.78801 265 ft 0 kts 146°
2026-04-29 16:06 56.22123 43.78802 265 ft 0 kts 146°
2026-04-29 16:06 56.22115 43.78811 265 ft 2 kts 146°
2026-04-29 16:06 56.22096 43.78825 265 ft 4 kts 168°
2026-04-29 16:07 56.22073 43.78803 265 ft 4 kts 234°
2026-04-29 16:07 56.22074 43.78747 265 ft 5 kts 279°
2026-04-29 16:07 56.22066 43.78689 265 ft 5 kts 223°
2026-04-29 16:07 56.22028 43.78667 265 ft 7 kts 193°
2026-04-29 16:08 56.21939 43.78635 265 ft 17 kts 193°
2026-04-29 16:08 56.21823 43.78576 265 ft 18 kts 192°
2026-04-29 16:08 56.21706 43.78532 265 ft 17 kts 191°
2026-04-29 16:08 56.21593 43.78491 265 ft 14 kts 191°
2026-04-29 16:09 56.21506 43.78455 265 ft 11 kts 205°
2026-04-29 16:09 56.21485 43.78332 265 ft 11 kts 282°
2026-04-29 16:09 56.21500 43.78197 266 ft 11 kts 282°
2026-04-29 16:09 56.21528 43.78076 267 ft 11 kts 322°
2026-04-29 16:10 56.21595 43.78072 268 ft 9 kts 12°
2026-04-29 16:10 56.21603 43.78075 268 ft 0 kts 12°
2026-04-29 16:11 56.21635 43.78087 268 ft 15 kts 11°
2026-04-29 16:11 56.21959 43.78205 265 ft 89 kts 11°
2026-04-29 16:11 56.22825 43.78520 267 ft 162 kts 11°
2026-04-29 16:11 56.24032 43.78966 962 ft 180 kts
2026-04-29 16:12 56.25234 43.79423 2345 ft 162 kts
2026-04-29 16:12 56.25923 43.79698 3295 ft 152 kts
2026-04-29 16:12 56.27494 43.80256 3969 ft 196 kts
2026-04-29 16:12 56.28895 43.80751 4354 ft 223 kts
2026-04-29 16:13 56.30494 43.81310 4810 ft 246 kts
2026-04-29 16:13 56.32276 43.81941 5246 ft 268 kts
2026-04-29 16:13 56.34109 43.82621 6382 ft 269 kts
2026-04-29 16:13 56.35948 43.83313 7411 ft 271 kts
2026-04-29 16:14 56.37805 43.84029 8216 ft 277 kts 13°
2026-04-29 16:14 56.39473 43.85813 8958 ft 288 kts 48°
2026-04-29 16:14 56.40380 43.89036 9792 ft 292 kts 73°
2026-04-29 16:14 56.40890 43.92619 10464 ft 301 kts 76°
2026-04-29 16:15 56.41431 43.96431 10674 ft 326 kts 74°
2026-04-29 16:15 56.42145 44.00462 10904 ft 348 kts 70°
2026-04-29 16:15 56.43037 44.04606 11453 ft 358 kts 67°
2026-04-29 16:15 56.44018 44.08761 12223 ft 361 kts 66°
2026-04-29 16:16 56.45044 44.12925 13019 ft 364 kts 65°
2026-04-29 16:16 56.46093 44.17105 13795 ft 367 kts 65°
2026-04-29 16:16 56.47160 44.21329 14476 ft 370 kts 65°
2026-04-29 16:16 56.48235 44.25582 15165 ft 373 kts 64°
2026-04-29 16:17 56.49316 44.29866 15919 ft 374 kts 64°
2026-04-29 16:17 56.50398 44.34162 16610 ft 377 kts 64°
2026-04-29 16:17 56.51487 44.38505 17299 ft 380 kts 64°
2026-04-29 16:17 56.52581 44.42872 17999 ft 382 kts 64°
2026-04-29 16:18 56.53668 44.47224 18614 ft 385 kts 64°
2026-04-29 16:18 56.54776 44.51671 19173 ft 388 kts 64°
2026-04-29 16:18 56.55889 44.56148 19730 ft 392 kts 63°
2026-04-29 16:18 56.57011 44.60670 20286 ft 395 kts 63°
2026-04-29 16:19 56.58140 44.65227 20834 ft 398 kts 63°
2026-04-29 16:19 56.59277 44.69825 21379 ft 401 kts 63°
2026-04-29 16:19 56.60421 44.74466 21899 ft 404 kts 63°
2026-04-29 16:19 56.61571 44.79137 22418 ft 407 kts 63°
2026-04-29 16:20 56.62730 44.83852 22929 ft 410 kts 63°
2026-04-29 16:20 56.63892 44.88595 23439 ft 413 kts 63°
2026-04-29 16:20 56.65032 44.93422 23839 ft 418 kts 66°
2026-04-29 16:20 56.65907 44.98508 24238 ft 424 kts 72°
2026-04-29 16:21 56.66714 45.03662 24642 ft 425 kts 68°
2026-04-29 16:21 56.68002 45.08449 24984 ft 422 kts 51°
2026-04-29 16:21 56.69853 45.12574 25395 ft 421 kts 45°
2026-04-29 16:21 56.71825 45.16540 25761 ft 423 kts 45°
2026-04-29 16:22 56.73779 45.20583 26092 ft 428 kts 47°
2026-04-29 16:22 56.75613 45.24892 26443 ft 432 kts 51°
2026-04-29 16:22 56.77361 45.29369 26792 ft 435 kts 52°
2026-04-29 16:22 56.79094 45.33919 27137 ft 438 kts 52°
2026-04-29 16:23 56.80842 45.38488 27492 ft 440 kts 52°
2026-04-29 16:23 56.82616 45.43062 27823 ft 443 kts 52°
2026-04-29 16:23 56.84393 45.47584 28123 ft 445 kts 52°
2026-04-29 16:23 56.86211 45.52173 28445 ft 448 kts 52°
2026-04-29 16:24 56.88050 45.56794 28760 ft 450 kts 52°
2026-04-29 16:24 56.89899 45.61438 29043 ft 453 kts 52°
2026-04-29 16:24 56.91755 45.66106 29330 ft 455 kts 52°
2026-04-29 16:24 56.93620 45.70805 29631 ft 457 kts 52°
2026-04-29 16:25 56.95482 45.75513 30041 ft 456 kts 52°
2026-04-29 16:25 56.97339 45.80219 30412 ft 455 kts 52°
2026-04-29 16:25 56.99198 45.84941 30639 ft 457 kts 52°
2026-04-29 16:25 57.01064 45.89689 30834 ft 460 kts 52°
2026-04-29 16:26 57.02938 45.94463 31092 ft 461 kts 52°
2026-04-29 16:26 57.04812 45.99249 31362 ft 462 kts 53°
2026-04-29 16:26 57.06687 46.04050 31600 ft 463 kts 53°
2026-04-29 16:26 57.08572 46.08884 31826 ft 465 kts 53°
2026-04-29 16:27 57.10457 46.13726 32079 ft 466 kts 53°
2026-04-29 16:27 57.12345 46.18589 32310 ft 467 kts 53°
2026-04-29 16:27 57.14237 46.23471 32551 ft 469 kts 53°
2026-04-29 16:27 57.16132 46.28372 32772 ft 471 kts 53°
2026-04-29 16:28 57.18035 46.33300 32971 ft 473 kts 53°
2026-04-29 16:28 57.19943 46.38252 33201 ft 474 kts 53°
2026-04-29 16:28 57.21850 46.43215 33433 ft 475 kts 53°
2026-04-29 16:28 57.23763 46.48200 33647 ft 476 kts 53°
2026-04-29 16:29 57.25679 46.53207 33838 ft 478 kts 54°
2026-04-29 16:29 57.27598 46.58229 34056 ft 479 kts 54°
2026-04-29 16:29 57.29490 46.63193 34276 ft 479 kts 54°
2026-04-29 16:29 57.31404 46.68222 34520 ft 478 kts 54°
2026-04-29 16:30 57.33320 46.73266 34715 ft 479 kts 54°
2026-04-29 16:30 57.35175 46.78406 34857 ft 481 kts 60°
2026-04-29 16:30 57.36591 46.84019 34985 ft 483 kts 68°
2026-04-29 16:31 57.38989 46.95715 34987 ft 485 kts 67°
2026-04-29 16:31 57.41882 47.06961 34973 ft 480 kts 63°
2026-04-29 16:32 57.44767 47.18075 34976 ft 477 kts 65°
2026-04-29 16:32 57.47446 47.29340 34983 ft 476 kts 66°
2026-04-29 16:32 57.48943 47.34828 34959 ft 476 kts 54°
2026-04-29 16:33 57.53867 47.42673 34974 ft 468 kts 24°
2026-04-29 16:33 57.59896 47.46989 34977 ft 468 kts 17°
2026-04-29 16:34 57.65995 47.51344 34973 ft 472 kts 21°
2026-04-29 16:34 57.71025 47.55397 34993 ft 474 kts 21°
2026-04-29 16:35 57.77105 47.60284 34977 ft 476 kts 21°
2026-04-29 16:35 57.84266 47.65902 34968 ft 478 kts 20°
2026-04-29 16:36 57.89373 47.69880 34960 ft 478 kts 20°
2026-04-29 16:36 57.95517 47.74683 34960 ft 478 kts 21°
2026-04-29 16:37 58.01644 47.79498 34964 ft 477 kts 21°
2026-04-29 16:37 58.06727 47.83509 34956 ft 476 kts 21°
2026-04-29 16:38 58.13859 47.89156 34955 ft 475 kts 21°
2026-04-29 16:38 58.19940 47.93989 34953 ft 474 kts 21°
2026-04-29 16:39 58.26015 47.98837 34957 ft 473 kts 21°
2026-04-29 16:39 58.32074 48.03690 34960 ft 472 kts 21°
2026-04-29 16:40 58.38134 48.08550 34955 ft 472 kts 21°
2026-04-29 16:40 58.44154 48.13352 34950 ft 473 kts 20°
2026-04-29 16:41 58.50219 48.18207 34953 ft 473 kts 21°
2026-04-29 16:41 58.56294 48.23093 34947 ft 474 kts 21°
2026-04-29 16:42 58.62354 48.28105 34943 ft 475 kts 22°
2026-04-29 16:42 58.68384 48.33310 34944 ft 476 kts 22°
2026-04-29 16:43 58.74427 48.38527 34943 ft 476 kts 22°
2026-04-29 16:43 58.80488 48.43742 34950 ft 476 kts 22°
2026-04-29 16:44 58.86527 48.49019 34946 ft 477 kts 23°
2026-04-29 16:44 58.92553 48.54403 34939 ft 477 kts 23°
2026-04-29 16:45 58.98543 48.59771 34941 ft 477 kts 23°
2026-04-29 16:45 59.04559 48.65167 34928 ft 476 kts 23°
2026-04-29 16:46 59.10561 48.70567 34933 ft 475 kts 23°
2026-04-29 16:46 59.16560 48.75986 34932 ft 475 kts 23°
2026-04-29 16:47 59.22617 48.81067 34921 ft 473 kts 17°
2026-04-29 16:47 59.28940 48.84375 34928 ft 469 kts
2026-04-29 16:48 59.35376 48.86409 34933 ft 469 kts
2026-04-29 16:48 59.41811 48.88705 34925 ft 470 kts
2026-04-29 16:49 59.48164 48.91428 34914 ft 470 kts 10°
2026-04-29 16:49 59.54548 48.94252 34923 ft 470 kts 10°
2026-04-29 16:50 59.60948 48.97044 34910 ft 471 kts 10°
2026-04-29 16:50 59.67346 48.99843 34911 ft 471 kts 10°
2026-04-29 16:51 59.73744 49.02659 34909 ft 471 kts 10°
2026-04-29 16:51 59.80143 49.05487 34920 ft 471 kts 10°
2026-04-29 16:52 59.86547 49.08328 34896 ft 471 kts 10°
2026-04-29 16:52 59.92947 49.11178 34903 ft 471 kts 10°
2026-04-29 16:53 59.99358 49.14044 34598 ft 476 kts 10°
2026-04-29 16:53 60.02601 49.15497 34038 ft 478 kts 10°
2026-04-29 16:53 60.05844 49.16956 33346 ft 477 kts 10°
2026-04-29 16:54 60.09068 49.18409 32848 ft 472 kts 10°
2026-04-29 16:54 60.12257 49.19849 32347 ft 467 kts 10°
2026-04-29 16:54 60.15412 49.21275 31887 ft 462 kts 10°
2026-04-29 16:54 60.18525 49.22729 31432 ft 457 kts 12°
2026-04-29 16:55 60.21545 49.24600 31120 ft 451 kts 19°
2026-04-29 16:55 60.24311 49.27321 30778 ft 447 kts 28°
2026-04-29 16:55 60.26937 49.30607 30358 ft 443 kts 31°
2026-04-29 16:55 60.29516 49.33973 29919 ft 438 kts 30°
2026-04-29 16:56 60.32115 49.37118 29405 ft 432 kts 26°
2026-04-29 16:56 60.34760 49.39917 28922 ft 426 kts 24°
2026-04-29 16:56 60.37397 49.42553 28474 ft 420 kts 23°
2026-04-29 16:56 60.39999 49.45154 28035 ft 414 kts 24°
2026-04-29 16:57 60.42563 49.47774 27596 ft 410 kts 24°
2026-04-29 16:57 60.45081 49.50407 27156 ft 405 kts 25°
2026-04-29 16:57 60.47563 49.53046 26699 ft 401 kts 25°
2026-04-29 16:57 60.50020 49.55687 26292 ft 397 kts 25°
2026-04-29 16:58 60.52444 49.58307 25882 ft 394 kts 25°
2026-04-29 16:58 60.54848 49.60912 25451 ft 390 kts 25°
2026-04-29 16:58 60.57235 49.63502 25030 ft 387 kts 24°
2026-04-29 16:58 60.59600 49.66071 24612 ft 384 kts 24°
2026-04-29 16:59 60.61951 49.68629 24209 ft 381 kts 24°
2026-04-29 16:59 60.64279 49.71164 23804 ft 378 kts 24°
2026-04-29 16:59 60.66593 49.73689 23396 ft 376 kts 24°
2026-04-29 16:59 60.68897 49.76206 22904 ft 373 kts 24°
2026-04-29 17:00 60.71175 49.78699 22494 ft 369 kts 24°
2026-04-29 17:00 60.73427 49.81169 22091 ft 366 kts 24°
2026-04-29 17:00 60.75654 49.83612 21687 ft 362 kts 24°
2026-04-29 17:00 60.77862 49.86039 21283 ft 359 kts 25°
2026-04-29 17:01 60.80052 49.88451 20898 ft 356 kts 25°
2026-04-29 17:01 60.82197 49.90816 20515 ft 354 kts 25°
2026-04-29 17:01 60.84345 49.93183 20240 ft 348 kts 25°
2026-04-29 17:01 60.86469 49.95521 19855 ft 346 kts 25°
2026-04-29 17:02 60.88587 49.97851 19490 ft 345 kts 24°
2026-04-29 17:02 60.90701 50.00182 19104 ft 346 kts 25°
2026-04-29 17:02 60.92826 50.02529 18728 ft 348 kts 25°
2026-04-29 17:02 60.94982 50.04914 18356 ft 356 kts 25°
2026-04-29 17:03 60.97176 50.07345 17927 ft 359 kts 25°
2026-04-29 17:03 60.99375 50.09789 17473 ft 358 kts 25°
2026-04-29 17:03 61.01553 50.12217 17052 ft 355 kts 26°
2026-04-29 17:03 61.03675 50.14839 16542 ft 356 kts 31°
2026-04-29 17:04 61.05701 50.17760 16129 ft 355 kts 34°
2026-04-29 17:04 61.07652 50.20869 15724 ft 353 kts 37°
2026-04-29 17:04 61.09537 50.24096 15341 ft 351 kts 38°
2026-04-29 17:04 61.11405 50.27342 14957 ft 349 kts 38°
2026-04-29 17:05 61.13268 50.30536 14572 ft 347 kts 38°
2026-04-29 17:05 61.15140 50.33685 14184 ft 346 kts 37°
2026-04-29 17:05 61.17019 50.36795 13807 ft 344 kts 37°
2026-04-29 17:05 61.18895 50.39869 13406 ft 343 kts 37°
2026-04-29 17:06 61.20768 50.42920 12995 ft 341 kts 37°
2026-04-29 17:06 61.22633 50.45950 12604 ft 339 kts 36°
2026-04-29 17:06 61.24486 50.48961 12215 ft 337 kts 36°
2026-04-29 17:06 61.26330 50.51958 11841 ft 335 kts 36°
2026-04-29 17:07 61.28163 50.54940 11469 ft 333 kts 37°
2026-04-29 17:07 61.29366 50.56900 11221 ft 332 kts 37°
2026-04-29 17:07 61.31762 50.60808 10747 ft 329 kts 37°
2026-04-29 17:07 61.33554 50.63737 10390 ft 327 kts 37°
2026-04-29 17:08 61.35324 50.66633 10213 ft 316 kts 37°
2026-04-29 17:08 61.37013 50.69406 10053 ft 301 kts 37°
2026-04-29 17:08 61.38617 50.72041 9917 ft 286 kts 37°
2026-04-29 17:08 61.40152 50.74566 9812 ft 278 kts 37°
2026-04-29 17:09 61.41672 50.77065 9586 ft 279 kts 37°
2026-04-29 17:09 61.43198 50.79576 9302 ft 278 kts 37°
2026-04-29 17:09 61.44714 50.82075 8993 ft 278 kts 37°
2026-04-29 17:09 61.46230 50.84578 8670 ft 278 kts 37°
2026-04-29 17:10 61.47748 50.87088 8352 ft 278 kts 37°
2026-04-29 17:10 61.49260 50.89590 8036 ft 278 kts 37°
2026-04-29 17:10 61.50772 50.92098 7720 ft 276 kts 37°
2026-04-29 17:10 61.52263 50.94575 7387 ft 270 kts 37°
2026-04-29 17:11 61.53702 50.96969 7083 ft 267 kts 37°
2026-04-29 17:11 61.55160 50.99391 6781 ft 267 kts 37°
2026-04-29 17:11 61.56618 51.01821 6480 ft 268 kts 37°
2026-04-29 17:11 61.58080 51.04259 6178 ft 268 kts 37°
2026-04-29 17:12 61.59541 51.06696 5856 ft 269 kts 36°
2026-04-29 17:12 61.61125 51.08705 5510 ft 263 kts 17°
2026-04-29 17:12 61.62865 51.09657 5202 ft 254 kts
2026-04-29 17:12 61.64002 51.10154 4987 ft 251 kts
2026-04-29 17:13 61.66243 51.11302 4568 ft 245 kts 12°
2026-04-29 17:13 61.67870 51.12251 4277 ft 239 kts 12°
2026-04-29 17:13 61.69461 51.13189 4016 ft 237 kts 12°
2026-04-29 17:13 61.71049 51.14122 3754 ft 237 kts 12°
2026-04-29 17:14 61.72636 51.15053 3497 ft 236 kts 11°
2026-04-29 17:14 61.74211 51.15976 3271 ft 234 kts 11°
2026-04-29 17:14 61.75785 51.16665 3034 ft 227 kts 356°
2026-04-29 17:14 61.77196 51.15676 2888 ft 210 kts 316°
2026-04-29 17:15 61.78088 51.13392 2835 ft 195 kts 299°
2026-04-29 17:15 61.78648 51.10891 2718 ft 183 kts 291°
2026-04-29 17:15 61.79103 51.08441 2605 ft 176 kts 290°
2026-04-29 17:15 61.79548 51.06044 2515 ft 175 kts 291°
2026-04-29 17:16 61.79992 51.03680 2498 ft 174 kts 291°
2026-04-29 17:16 61.80292 51.01218 2475 ft 175 kts 267°
2026-04-29 17:16 61.79953 50.98774 2481 ft 173 kts 241°
2026-04-29 17:16 61.79016 50.97242 2520 ft 173 kts 212°
2026-04-29 17:17 61.77944 50.96081 2523 ft 170 kts 215°
2026-04-29 17:17 61.76906 50.94875 2447 ft 170 kts 211°
2026-04-29 17:17 61.75865 50.93920 2506 ft 156 kts 208°
2026-04-29 17:17 61.74844 50.93047 2316 ft 156 kts 208°
2026-04-29 17:18 61.73848 50.92205 2078 ft 159 kts 208°
2026-04-29 17:18 61.72831 50.91367 1922 ft 155 kts 207°
2026-04-29 17:18 61.71814 50.90516 1703 ft 155 kts 207°
2026-04-29 17:18 61.70805 50.89669 1481 ft 156 kts 207°
2026-04-29 17:19 61.69788 50.88828 1219 ft 157 kts 205°
2026-04-29 17:19 61.68792 50.87979 964 ft 153 kts 205°
2026-04-29 17:19 61.67836 50.87173 754 ft 147 kts 204°
2026-04-29 17:19 61.66904 50.86382 552 ft 145 kts 202°
2026-04-29 17:20 61.65970 50.85604 403 ft 144 kts 202°
2026-04-29 17:20 61.65059 50.84838 300 ft 133 kts 202°
2026-04-29 17:20 61.64347 50.84235 298 ft 85 kts 201°
2026-04-29 17:20 61.63926 50.83882 296 ft 54 kts 201°
2026-04-29 17:21 61.63738 50.83717 298 ft 9 kts 213°
2026-04-29 17:21 61.63707 50.83657 300 ft 0 kts 210°
2026-04-29 17:21 61.63702 50.83660 299 ft 1 kts 164°
2026-04-29 17:21 61.63703 50.83679 301 ft 2 kts 70°
2026-04-29 17:22 61.63742 50.83730 298 ft 15 kts 23°
2026-04-29 17:22 61.63890 50.83854 298 ft 30 kts 21°
2026-04-29 17:22 61.64116 50.84042 298 ft 39 kts 21°
2026-04-29 17:22 61.64402 50.84279 298 ft 49 kts 21°
2026-04-29 17:23 61.64737 50.84565 298 ft 53 kts 22°
2026-04-29 17:23 61.64965 50.84758 297 ft 52 kts 21°
2026-04-29 17:23 61.65290 50.85030 299 ft 47 kts 22°
2026-04-29 17:23 61.65553 50.85253 301 ft 34 kts 22°
2026-04-29 17:24 61.65711 50.85356 298 ft 18 kts 356°
2026-04-29 17:24 61.65826 50.85276 299 ft 17 kts 338°
2026-04-29 17:24 61.65931 50.85183 300 ft 16 kts 338°
2026-04-29 17:24 61.66035 50.85185 297 ft 15 kts 20°
2026-04-29 17:25 61.66131 50.85265 299 ft 15 kts 21°
2026-04-29 17:25 61.66250 50.85379 297 ft 14 kts 31°
2026-04-29 17:25 61.66299 50.85455 296 ft 9 kts 41°
2026-04-29 17:25 61.66342 50.85514 300 ft 5 kts 11°
2026-04-29 17:26 61.66367 50.85485 296 ft 1 kts 314°
2026-04-29 17:26 61.66372 50.85471 297 ft 1 kts 308°
2026-04-29 17:26 61.66377 50.85458 296 ft 1 kts 306°
2026-04-29 17:26 61.66377 50.85456 296 ft 0 kts 306°